This is the latest recevied weather packets stored in our database for station/object K3PPP. If no packets are shown the sender has not sent any weather packets the latest 10 day(s).
| Time | Temp. | Humidity | Pressure | Rain* | Wind** | Luminosity | Snow |
|---|---|---|---|---|---|---|---|
| 1777395210 | 13.33° C | 93% | 1016 hPa | 0 mm | - | 71 W/m² | - |
| 1777394907 | 13.33° C | 93% | 1015.7 hPa | 0 mm | - | 79 W/m² | - |
| 1777394602 | 13.33° C | 92% | 1015.6 hPa | 0 mm | - | 76 W/m² | - |
| 1777394300 | 13.33° C | 91% | 1015.8 hPa | 0 mm | - | 77 W/m² | - |
| 1777393996 | 13.33° C | 90% | 1016 hPa | 0 mm | - | 67 W/m² | - |
| 1777393696 | 13.89° C | 89% | 1015.8 hPa | 0 mm | - | 45 W/m² | - |
| 1777393391 | 13.89° C | 88% | 1015.7 hPa | 0 mm | - | 63 W/m² | - |
| 1777393087 | 13.33° C | 88% | 1015.8 hPa | 0 mm | - | 76 W/m² | - |
| 1777392783 | 13.33° C | 88% | 1015.6 hPa | 0 mm | - | 74 W/m² | - |
| 1777392479 | 13.33° C | 88% | 1015.5 hPa | 0 mm | - | 68 W/m² | - |
| 1777392175 | 13.89° C | 88% | 1015.5 hPa | 0 mm | - | 66 W/m² | - |
| 1777391870 | 13.33° C | 87% | 1015.5 hPa | 0 mm | - | 82 W/m² | - |
| 1777391565 | 13.33° C | 87% | 1015.7 hPa | 0 mm | - | 104 W/m² | - |
| 1777391262 | 13.33° C | 89% | 1015.5 hPa | 0 mm | - | 161 W/m² | - |
| 1777390959 | 12.78° C | 90% | 1015.5 hPa | 0 mm | - | 225 W/m² | - |
| 1777390655 | 12.22° C | 91% | 1015.8 hPa | 0 mm | - | 278 W/m² | - |
| 1777390352 | 11.67° C | 92% | 1016 hPa | 0 mm | - | 168 W/m² | - |
| 1777390047 | 11.67° C | 92% | 1015.8 hPa | 0 mm | - | 132 W/m² | - |
| 1777389745 | 11.11° C | 93% | 1016 hPa | 0 mm | - | 168 W/m² | - |
| 1777389441 | 11.11° C | 93% | 1015.8 hPa | 0 mm | - | 77 W/m² | - |
| 1777389139 | 11.11° C | 93% | 1015.8 hPa | 0 mm | - | 153 W/m² | - |
| 1777388836 | 11.11° C | 93% | 1016 hPa | 0 mm | - | 106 W/m² | - |
| 1777388533 | 11.11° C | 93% | 1015.8 hPa | 0 mm | - | 101 W/m² | - |
| 1777388229 | 10.56° C | 94% | 1015.8 hPa | 0 mm | - | 80 W/m² | - |
| 1777387924 | 10.56° C | 94% | 1016 hPa | 0 mm | - | 132 W/m² | - |
* Rain latest hour (hover to see other rain measurements)
** Current wind speed in m/s (hover to see current wind gust speed)